Weather in Tolmachi

Russia / Tver Oblast     57°25′47″N   35°41′20″E
temp.,
°C
wind,
m/s
gust,
m/s
humid.,
%
clouds,
%
prec.,
mm/h
press.,
hPa
HPBL,
m
15 august, mon
mon1500:00+17se227520 0.0 102113
03:00+16ese237917 0.0 102140
06:00+17ese2280100 0.0 102143
09:00+22se2359100 0.0 1022300
12:00+26se2445100 0.0 10221082
15:00+27sse3439100 0.0 10212258
18:00+26e125495 0.0 102050
21:00+20ese226926 0.0 102131
16 august, tue
tue1600:00+18se26716 0.0 1022102
03:00+16se2574100 0.0 102291
06:00+16se277647 0.0 1022125
09:00+22se365797 0.0 1022344
12:00+26se474318 0.0 10221598
15:00+27se46388 0.0 10212144
18:00+25se2454100 0.0 1021156
21:00+20ese2268100 0.0 102120
17 august, wed
wed1700:00+19ese296974 0.0 1021190
03:00+17ese2673100 0.0 1021121
06:00+18ese2573100 0.0 1021129
09:00+22ese355860 0.0 1021394
12:00+26ese344371 0.0 10201465
15:00+27ese343839 0.0 10191683
18:00+25e2356100 0.0 1019106
21:00+20ene2666100 0.0 101995
18 august, thu
thu1800:00+18e2471100 0.0 101884
03:00+18se2277100 0.0 101943
06:00+17se2276100 0.0 101945
09:00+23ese245826 0.0 1019356
12:00+27sse344598 0.0 1019940
15:00+29se223885 0.0 10191643
18:00+26ese2554100 0.0 1019223
21:00+20ese286448 0.0 1020146
19 august, fri
fri1900:00+18ese24626 0.0 102166
03:00+16e24675 0.0 102161
06:00+16e257329 0.0 102288
09:00+22e37545 0.0 1022421
12:00+27e46385 0.0 10211387
15:00+28e45335 0.0 10201778
18:00+26e25473 0.0 1020213
21:00+20e37625 0.0 1021124